Location: Unspecified
(0.0000°N, 0.0000°E)
Time: 07:36:22
(UTC+00:00)

Nadezhda 6 - Visible Passes

Search period start: 10 June 2023 00:00
Search period end: 20 June 2023 00:00
Orbit: 659 x 677 km, 97.8° (Epoch: 09 June)

Date Brightness Start Highest point End Pass type
(mag) Time Alt. Az. Time Alt. Az. Time Alt. Az.
10 Jun 7.4 18:34:51 10° SSW 18:38:58 34° WSW 18:43:07 10° NW visible
11 Jun 8.4 05:15:09 10° ENE 05:18:13 18° ESE 05:21:16 10° SE visible
11 Jun 8.6 19:09:03 10° SW 19:11:04 13° WSW 19:13:05 10° WNW visible
13 Jun 7.4 18:34:18 10° SSW 18:38:26 35° WSW 18:42:36 10° NW visible
14 Jun 8.4 05:14:37 10° ENE 05:17:40 18° ESE 05:20:43 10° SE visible
14 Jun 8.6 19:08:29 10° SW 19:10:31 13° WSW 19:12:33 10° WNW visible
16 Jun 7.4 18:33:44 10° SSW 18:37:53 35° WSW 18:42:03 10° NW visible
17 Jun 8.4 05:14:05 10° ENE 05:17:07 18° ESE 05:20:08 10° SE visible
17 Jun 8.6 19:07:54 10° SW 19:09:58 13° WSW 19:12:02 10° WNW visible
19 Jun 7.4 18:33:09 10° SSW 18:37:19 35° WSW 18:41:30 10° NW visible
